[[{"header":{"parameterUnit":"m.s-1","parameterCategory":1,"la1":30.2991,"la2":30.254,"lo1":-89.0895,"lo2":-89.0444,"dy":0.0017,"dx":0.0017,"nx":28,"ny":28,"refTime":"2025-06-09T09:00:00:Z","depth":0,"parameterNumber":2,"parameterNumberName":"U-component_of_WINDS"},"data":[0,0,0,0,0,0,0,0,0,0,0,0,0,0,0,0,0,0,0,0,0,0,0,0,0,0,0,0,0,0,0,0,0,0,0,0,0,0,0,0,0,0,0,0,0,0,0,0,0,0,0,0,0,0,0,0,0,0,2.6601,2.6601,0,2.6645,2.6646,2.6646,2.6658,2.6658,2.6658,2.6657,2.6705,2.6706,2.6708,0,0,0,0,0,0,0,0,0,0,0,0,0,2.6529,2.653,2.6601,2.6601,2.6602,2.6645,2.6646,2.6646,2.6658,2.6658,2.6658,2.6657,2.6704,2.6706,2.6708,0,0,0,0,0,0,0,0,0,0,0,0,0,2.6566,2.6531,2.6601,2.6613,2.6615,2.6645,2.6646,2.6646,2.6658,2.6658,2.6657,2.6657,2.6704,2.6706,2.6708,2.673,0,0,2.6715,2.6716,0,0,0,0,0,0,0,0,2.6564,2.6568,2.6611,2.6612,2.6614,2.6646,2.6638,2.6675,2.6658,2.6642,2.6657,2.6657,2.6686,2.6689,2.6699,2.6732,2.6734,2.6715,2.6717,2.6718,2.6718,0,0,0,0,0,0,0,2.6561,2.6566,2.6618,2.6611,2.6613,2.6617,2.6622,2.6645,2.6665,2.6643,2.6644,2.6649,2.6686,2.6696,2.67,2.6735,2.6715,2.6717,2.6719,2.6719,2.679,2.679,0,0,0,0,0,0,2.6556,2.6564,2.6617,2.662,2.6587,2.6619,2.6624,2.6636,2.6665,2.6669,2.6649,2.6649,2.6693,2.6697,2.6701,2.6729,2.6718,2.672,2.6721,2.6789,2.679,2.679,0,0,0,0,0,0,2.6554,2.6561,2.6615,2.6592,2.6599,2.662,2.6634,2.6637,2.6647,2.667,2.6674,2.6655,2.6692,2.6698,2.6723,2.6731,2.6721,2.6723,2.6789,2.6789,2.679,2.6785,0,0,0,0,0,0,2.6552,2.656,2.6568,2.6592,2.6601,2.6635,2.6634,2.6638,2.665,2.6651,2.6677,2.6681,2.6693,2.6719,2.6725,2.6734,2.6725,2.6788,2.6789,2.679,2.6784,2.6785,2.6786,0,0,0,0,0,2.655,2.6565,2.6568,2.6574,2.6611,2.6635,2.664,2.6653,2.6651,2.6659,2.6674,2.668,2.6729,2.6722,2.6728,2.6738,2.6788,2.6789,2.679,2.6784,2.6785,2.6786,0,0,0,0,0,0,2.6541,2.6568,2.6572,2.6595,2.6613,2.6637,2.6648,2.6654,2.6673,2.6673,2.6689,2.6695,2.6718,2.6731,2.6722,2.6761,2.6759,2.6761,2.6752,2.6753,2.6754,2.675,2.6726,0,0,0,0,0,2.6541,2.6558,2.6582,2.66,2.6609,2.6627,2.6638,2.6647,2.6666,2.6673,2.669,2.6709,2.6729,2.6742,2.6762,2.6786,2.6792,2.6796,2.6797,2.6798,2.68,2.6814,2.6816,2.6794,2.6794,2.6794,0,0,2.6543,2.656,2.657,2.6599,2.6613,2.6631,2.6633,2.6652,2.6666,2.6677,2.67,2.6714,2.6736,2.6761,2.6773,2.6772,2.6807,2.6799,2.68,2.6801,2.6816,2.6818,2.6819,2.6795,2.6795,2.6795,0,0,2.6555,2.6569,2.6586,2.6601,2.6623,2.6636,2.664,2.6664,2.6673,2.6697,2.6706,2.6723,2.6757,2.6772,2.6785,2.6804,2.681,2.681,2.6815,2.6829,2.683,2.6832,2.6839,2.6841,2.6812,2.6812,2.6812,0,2.6554,2.6581,2.6595,2.6613,2.6626,2.6636,2.6654,2.6668,2.6696,2.6705,2.6704,2.6747,2.6763,2.6791,2.6796,2.6806,2.6812,2.6807,2.6829,2.6831,2.6832,2.6839,2.6842,2.6812,2.6812,2.6812,2.6812,0,2.6579,2.6598,2.6609,2.6635,2.6649,2.6667,2.6684,2.6697,2.6705,2.6718,2.6743,2.6763,2.6786,2.6794,2.6802,2.6825,2.6823,2.6826,2.6823,2.6834,2.6841,2.6843,2.6812,2.6812,2.6812,2.6812,0,0,2.6585,2.6619,2.6623,2.6635,2.6661,2.6676,2.6695,2.6718,2.6729,2.6748,2.6765,2.6794,2.6796,2.6811,2.6821,2.6833,2.6847,2.6834,2.6835,2.6835,2.6873,2.6871,2.6874,2.6852,2.6852,2.6853,2.6871,0,2.66,2.6634,2.6647,2.6675,2.6693,2.6704,2.6721,2.6739,2.6752,2.6769,2.6784,2.6804,2.6805,2.6814,2.6827,2.6843,2.6855,2.6842,2.6868,2.6869,2.6861,2.6877,2.6875,2.6892,2.6874,2.6875,2.6875,0,2.6622,2.664,2.667,2.6694,2.6702,2.6717,2.6739,2.6756,2.6777,2.6786,2.6802,2.6812,2.6833,2.683,2.686,2.6851,2.6863,2.6873,2.6874,2.6876,2.6872,2.688,2.6897,2.69,2.6879,2.6879,2.6879,0,2.6623,2.6656,2.6678,2.6688,2.6717,2.6727,2.674,2.6761,2.6774,2.6794,2.6803,2.6826,2.6838,2.6856,2.6872,2.6868,2.6901,2.6899,2.6909,2.6908,2.6914,2.6914,2.6934,2.6923,2.6923,2.6923,2.6923,0,2.6638,2.6655,2.6679,2.6692,2.6713,2.6729,2.6748,2.6762,2.6781,2.6798,2.6809,2.6825,2.6845,2.6864,2.6877,2.69,2.6906,2.6914,2.6917,2.6912,2.6911,2.692,2.6919,2.6924,2.6923,2.6923,2.6923,0,2.6642,2.6659,2.6683,2.6709,2.6716,2.673,2.6752,2.6766,2.678,2.6801,2.6807,2.6829,2.6852,2.6869,2.6899,2.6908,2.6932,2.6936,2.6925,2.6926,2.6935,2.6934,2.696,2.6965,2.6951,2.6951,2.6952,0,2.665,2.6664,2.6691,2.6703,2.6715,2.6735,2.6748,2.6765,2.6779,2.6805,2.6816,2.6839,2.6859,2.6895,2.6914,2.6937,2.6941,2.6949,2.6944,2.6939,2.6941,2.6939,2.6941,2.6949,2.6949,2.6949,2.6949,0,2.6663,2.667,2.6689,2.6711,2.6727,2.6745,2.6764,2.6773,2.6794,2.6809,2.6832,2.6847,2.6877,2.6901,2.6926,2.694,2.6948,2.695,2.6954,2.6949,2.6942,2.6946,2.6926,2.6949,2.6949,2.6949,2.6949,2.6949,2.6669,2.6682,2.6703,2.6724,2.674,2.6757,2.6772,2.6787,2.6807,2.6832,2.6841,2.6865,2.6887,2.6922,2.6936,2.6956,2.6956,2.6961,2.6962,2.6963,2.6963,2.6939,2.696,2.696,2.696,2.696,2.696,0,2.6682,2.6696,2.6715,2.6741,2.6758,2.6764,2.6785,2.6799,2.6819,2.6839,2.6858,2.6885,2.6908,2.6929,2.6953,2.6965,2.6969,2.697,2.6969,2.6973,2.6961,2.6955,2.6966,2.6966,2.6966,2.6966,2.6966,2.6966,2.669,2.6713,2.6723,2.6754,2.6768,2.6791,2.6803,2.6819,2.6835,2.6864,2.6883,2.6897,2.6917,2.6943,2.6965,2.6971,2.6979,2.6979,2.6986,2.6974,2.6973,2.6973,2.6967,2.6981,2.6981,2.6996,2.6996,2.6996]},{"header":{"parameterUnit":"m.s-1","parameterCategory":1,"la1":30.2991,"la2":30.254,"lo1":-89.0895,"lo2":-89.0444,"dy":0.0017,"dx":0.0017,"nx":28,"ny":28,"refTime":"2025-06-09T09:00:00:Z","depth":0,"parameterNumber":3,"parameterNumberName":"V-component_of_WINDS"},"data":[0,0,0,0,0,0,0,0,0,0,0,0,0,0,0,0,0,0,0,0,0,0,0,0,0,0,0,0,0,0,0,0,0,0,0,0,0,0,0,0,0,0,0,0,0,0,0,0,0,0,0,0,0,0,0,0,0,0,5.1508,5.1509,0,5.1646,5.1648,5.1649,5.1691,5.1691,5.169,5.1689,5.1823,5.1827,5.1831,0,0,0,0,0,0,0,0,0,0,0,0,0,5.1272,5.1276,5.1508,5.1509,5.1511,5.1646,5.1648,5.165,5.1692,5.1691,5.169,5.1689,5.1821,5.1826,5.1831,0,0,0,0,0,0,0,0,0,0,0,0,0,5.1388,5.1277,5.1507,5.1548,5.1554,5.1646,5.1648,5.165,5.1692,5.1691,5.169,5.1689,5.182,5.1826,5.1832,5.189,0,0,5.1851,5.1854,0,0,0,0,0,0,0,0,5.1382,5.1397,5.1541,5.1546,5.1552,5.1651,5.1614,5.173,5.1692,5.1639,5.1689,5.1688,5.1766,5.1776,5.1804,5.1897,5.1902,5.1852,5.1855,5.1858,5.186,0,0,0,0,0,0,0,5.1373,5.1391,5.1562,5.1543,5.1549,5.1557,5.1573,5.1636,5.1706,5.1644,5.1647,5.1663,5.1768,5.1798,5.1808,5.1904,5.1851,5.1857,5.1861,5.1863,5.2052,5.2053,0,0,0,0,0,0,5.1359,5.1384,5.1558,5.1566,5.1463,5.1562,5.158,5.162,5.1705,5.1718,5.1664,5.1665,5.1788,5.18,5.1812,5.1887,5.1858,5.1864,5.1867,5.205,5.2052,5.2053,0,0,0,0,0,0,5.1354,5.1375,5.1552,5.1476,5.15,5.1568,5.1612,5.1623,5.1653,5.1721,5.1733,5.1682,5.1788,5.1804,5.1871,5.1892,5.1867,5.1872,5.2049,5.2051,5.2052,5.2037,0,0,0,0,0,0,5.1347,5.1373,5.1397,5.1477,5.1504,5.1611,5.1614,5.1626,5.1665,5.1667,5.1741,5.1752,5.1788,5.1862,5.1878,5.19,5.1877,5.2047,5.205,5.2052,5.2035,5.2038,5.2039,0,0,0,0,0,5.1339,5.1385,5.1398,5.1419,5.1536,5.1612,5.1627,5.167,5.1666,5.169,5.1734,5.175,5.1887,5.1868,5.1886,5.1912,5.2046,5.2049,5.2052,5.2035,5.2037,5.2039,0,0,0,0,0,0,5.1303,5.1396,5.1412,5.1486,5.1542,5.1619,5.1652,5.1672,5.1727,5.1726,5.1774,5.1791,5.1855,5.189,5.1867,5.1973,5.1967,5.1974,5.1948,5.1951,5.1953,5.1943,5.1882,0,0,0,0,0,5.1305,5.1362,5.1439,5.1496,5.1524,5.1583,5.1617,5.1646,5.1704,5.1726,5.1775,5.1828,5.1884,5.1919,5.1974,5.204,5.2057,5.2066,5.2068,5.207,5.2075,5.2113,5.2118,5.2062,5.2062,5.2062,0,0,5.1307,5.1365,5.1397,5.1491,5.1537,5.1592,5.1602,5.166,5.1701,5.1734,5.1803,5.184,5.1902,5.197,5.2002,5.2001,5.2094,5.2073,5.2074,5.2078,5.2116,5.2121,5.2126,5.2064,5.2064,5.2064,0,0,5.134,5.139,5.1445,5.1491,5.1562,5.1601,5.1614,5.169,5.1717,5.1786,5.1813,5.186,5.1955,5.1999,5.2033,5.2083,5.2099,5.2099,5.211,5.2146,5.215,5.2155,5.2173,5.2179,5.2104,5.2104,5.2104,0,5.1334,5.1421,5.1469,5.1527,5.1566,5.1602,5.1656,5.1698,5.1782,5.1807,5.1805,5.1926,5.197,5.2049,5.2061,5.2088,5.2103,5.2091,5.2146,5.2151,5.2156,5.2173,5.218,5.2103,5.2103,5.2103,5.2104,0,5.1409,5.1469,5.1504,5.1588,5.1631,5.1686,5.174,5.1778,5.1802,5.1841,5.1911,5.1966,5.2032,5.2053,5.2076,5.2135,5.2132,5.2138,5.2133,5.216,5.2177,5.2184,5.2103,5.2103,5.2103,5.2103,0,0,5.1424,5.1535,5.1547,5.1585,5.1666,5.1712,5.1768,5.1837,5.1868,5.1924,5.1971,5.2051,5.2057,5.2096,5.2124,5.2156,5.2193,5.2158,5.216,5.2163,5.2261,5.2257,5.2264,5.2204,5.2205,5.2207,5.2256,0,5.1468,5.1574,5.1618,5.1702,5.1757,5.1792,5.1841,5.1894,5.1931,5.1982,5.2021,5.2078,5.2082,5.2106,5.2139,5.2181,5.2213,5.2178,5.2247,5.2249,5.2231,5.2273,5.2269,5.2313,5.2263,5.2264,5.2265,0,5.1533,5.1594,5.1684,5.1759,5.1784,5.1827,5.1894,5.1942,5.2003,5.2027,5.2072,5.2099,5.2157,5.2148,5.2228,5.2203,5.2233,5.2258,5.2261,5.227,5.2259,5.2283,5.2328,5.2335,5.2276,5.2275,5.2274,0,5.1536,5.1639,5.1707,5.1738,5.1827,5.1857,5.1895,5.1955,5.1994,5.205,5.2076,5.2137,5.217,5.2216,5.2258,5.2248,5.2334,5.2328,5.2355,5.2354,5.2372,5.237,5.2422,5.239,5.239,5.239,5.2389,0,5.158,5.1634,5.1709,5.1751,5.1811,5.1861,5.1919,5.1959,5.2012,5.206,5.2092,5.2136,5.2189,5.2239,5.2271,5.2333,5.2347,5.2367,5.2375,5.2365,5.2363,5.2386,5.2384,5.2391,5.2391,5.2391,5.239,0,5.1593,5.1646,5.1722,5.1801,5.1822,5.1864,5.193,5.197,5.201,5.207,5.2087,5.2147,5.2208,5.2255,5.2332,5.2354,5.2419,5.2427,5.24,5.2404,5.2428,5.2425,5.2498,5.251,5.2468,5.2469,5.2469,0,5.1619,5.1661,5.1746,5.1782,5.1821,5.1878,5.1919,5.1968,5.2008,5.2081,5.2112,5.2176,5.223,5.2324,5.2374,5.2433,5.2443,5.2465,5.2452,5.2441,5.2445,5.2442,5.2446,5.2466,5.2466,5.2467,5.2467,0,5.1658,5.1682,5.1741,5.1809,5.1857,5.1911,5.1966,5.1993,5.2052,5.2095,5.2159,5.2201,5.2282,5.2344,5.2409,5.2445,5.2466,5.247,5.248,5.247,5.2453,5.2463,5.2405,5.2468,5.2468,5.2468,5.2468,5.2468,5.1679,5.1719,5.1785,5.1849,5.1896,5.1947,5.199,5.2036,5.2091,5.2163,5.2188,5.2254,5.2313,5.2403,5.244,5.249,5.2491,5.2504,5.2508,5.251,5.251,5.2444,5.2502,5.2502,5.2502,5.2502,5.2502,0,5.172,5.1765,5.1824,5.1902,5.1952,5.1969,5.2031,5.2071,5.213,5.2185,5.2238,5.2311,5.2372,5.2427,5.2489,5.2519,5.253,5.2534,5.2533,5.2541,5.2505,5.2492,5.2525,5.2525,5.2525,5.2525,5.2525,5.2525,5.1748,5.1818,5.185,5.1942,5.1985,5.2053,5.2087,5.2134,5.2178,5.226,5.2312,5.2348,5.2403,5.247,5.2526,5.254,5.2562,5.2564,5.258,5.2546,5.2543,5.254,5.2528,5.2568,5.2568,5.2611,5.2612,5.2612]}]]